Location: Proctor
(47.8934°N, 114.3048°W)
Time: 21:09:51
(UTC+00:00)

Tiros 1 despin weight - Pass Details

Date: 04 July 2024
Orbit: 576 x 620 km, 48.2° (Epoch: 19 July)

Event Time Altitude Azimuth Distance (km) Brightness Sun altitude
Rises 21:21:55 0° 282° (WNW) 2,893 ? 57.9°
Reaches altitude 10° 21:24:48 10° 264° (W) 1,986 ? 57.6°
Maximum altitude 21:27:57 19° 220° (SW) 1,496 ? 57.2°
Drops below altitude 10° 21:31:07 10° 176° (S) 1,977 ? 56.8°
Sets 21:33:58 0° 158° (SSE) 2,875 ? 56.4°
